Time,TemperatureF,DewpointF,PressureIn,WindDirection,WindDirectionDegrees,WindSpeedMPH,WindSpeedGustMPH,Humidity,HourlyPrecipIn,Conditions,Clouds,dailyrainin,SoftwareType,DateUTC
2013-10-18 00:00:00,46.5,38.7,29.08,NNW,338,0.0,4.4,74,0.00,,,0.02,WUHU216HW,2013-10-18 05:00:00,
2013-10-18 00:05:00,46.2,38.4,29.08,NW,315,0.0,0.0,74,0.00,,,0.00,WUHU216HW,2013-10-18 05:05:00,
2013-10-18 00:10:00,46.0,38.5,29.08,WNW,293,0.0,0.0,75,0.00,,,0.00,WUHU216HW,2013-10-18 05:10:00,
2013-10-18 00:15:00,46.0,38.5,29.08,NNW,338,0.0,0.0,75,0.00,,,0.00,WUHU216HW,2013-10-18 05:15:00,
2013-10-18 00:20:00,46.0,38.5,29.08,NW,315,0.0,4.6,75,0.00,,,0.00,WUHU216HW,2013-10-18 05:20:00,
2013-10-18 00:25:00,45.6,38.2,29.08,NW,315,6.0,6.0,75,0.00,,,0.00,WUHU216HW,2013-10-18 05:25:00,
2013-10-18 00:31:00,45.5,38.0,29.08,NW,315,3.8,6.9,75,0.00,,,0.00,WUHU216HW,2013-10-18 05:31:00,
2013-10-18 00:36:00,45.3,38.1,29.08,NW,315,0.0,6.9,76,0.00,,,0.00,WUHU216HW,2013-10-18 05:36:00,
2013-10-18 00:41:00,45.1,38.0,29.08,NW,315,0.0,0.0,76,0.00,,,0.00,WUHU216HW,2013-10-18 05:41:00,
2013-10-18 00:46:00,44.9,37.8,29.09,NW,315,0.0,0.0,76,0.00,,,0.00,WUHU216HW,2013-10-18 05:46:00,
2013-10-18 00:51:00,44.7,37.9,29.08,NW,315,0.0,0.0,77,0.00,,,0.00,WUHU216HW,2013-10-18 05:51:00,
2013-10-18 00:56:00,44.4,37.6,29.09,NW,315,0.0,0.0,77,0.00,,,0.00,WUHU216HW,2013-10-18 05:56:00,
2013-10-18 01:01:00,44.2,37.4,29.08,NW,315,0.0,0.0,77,0.00,,,0.00,WUHU216HW,2013-10-18 06:01:00,
2013-10-18 01:07:00,43.8,37.4,29.08,NW,315,0.0,0.0,78,0.00,,,0.00,WUHU216HW,2013-10-18 06:07:00,
2013-10-18 01:12:00,43.7,37.2,29.09,NW,315,0.0,0.0,78,0.00,,,0.00,WUHU216HW,2013-10-18 06:12:00,
2013-10-18 01:17:00,43.5,37.0,29.09,NW,315,0.0,0.0,78,0.00,,,0.00,WUHU216HW,2013-10-18 06:17:00,
2013-10-18 01:22:00,43.1,36.7,29.09,NW,315,0.0,0.0,78,0.00,,,0.00,WUHU216HW,2013-10-18 06:22:00,
2013-10-18 01:27:00,42.9,36.5,29.09,NW,315,0.0,0.0,78,0.00,,,0.00,WUHU216HW,2013-10-18 06:27:00,
2013-10-18 01:32:00,42.4,36.3,29.09,NW,315,0.0,0.0,79,0.00,,,0.00,WUHU216HW,2013-10-18 06:32:00,
2013-10-18 01:37:00,42.0,35.9,29.09,NW,315,0.0,0.0,79,0.00,,,0.00,WUHU216HW,2013-10-18 06:37:00,
2013-10-18 01:42:00,41.9,36.1,29.09,NW,315,0.0,0.0,80,0.00,,,0.00,WUHU216HW,2013-10-18 06:42:00,
2013-10-18 01:48:00,41.7,36.2,29.10,NW,315,0.0,0.0,81,0.00,,,0.00,WUHU216HW,2013-10-18 06:48:00,
2013-10-18 01:53:00,41.5,36.0,29.10,NW,315,0.0,0.0,81,0.00,,,0.00,WUHU216HW,2013-10-18 06:53:00,
2013-10-18 01:58:00,41.5,36.0,29.10,NW,315,0.0,0.0,81,0.00,,,0.00,WUHU216HW,2013-10-18 06:58:00,
2013-10-18 02:03:00,41.7,36.2,29.10,NW,315,0.0,0.0,81,0.00,,,0.00,WUHU216HW,2013-10-18 07:03:00,
2013-10-18 02:08:00,41.5,36.0,29.10,NW,315,0.0,0.0,81,0.00,,,0.00,WUHU216HW,2013-10-18 07:08:00,
2013-10-18 02:13:00,41.5,36.3,29.10,NW,315,0.0,0.0,82,0.00,,,0.00,WUHU216HW,2013-10-18 07:13:00,
2013-10-18 02:18:00,41.5,36.3,29.10,NW,315,0.0,0.0,82,0.00,,,0.00,WUHU216HW,2013-10-18 07:18:00,
2013-10-18 02:23:00,41.3,36.2,29.09,NW,315,0.0,0.0,82,0.00,,,0.00,WUHU216HW,2013-10-18 07:23:00,
2013-10-18 02:28:00,41.3,36.2,29.10,NW,315,0.0,0.0,82,0.00,,,0.00,WUHU216HW,2013-10-18 07:28:00,
2013-10-18 02:34:00,41.1,36.0,29.09,NW,315,0.0,0.0,82,0.00,,,0.00,WUHU216HW,2013-10-18 07:34:00,
2013-10-18 02:39:00,41.1,36.0,29.09,NW,315,0.0,0.0,82,0.00,,,0.00,WUHU216HW,2013-10-18 07:39:00,
2013-10-18 02:44:00,41.0,35.8,29.10,NW,315,0.0,0.0,82,0.00,,,0.00,WUHU216HW,2013-10-18 07:44:00,
2013-10-18 02:49:00,41.1,36.0,29.10,NW,315,0.0,0.0,82,0.00,,,0.00,WUHU216HW,2013-10-18 07:49:00,
2013-10-18 02:54:00,41.1,36.0,29.10,NW,315,0.0,0.0,82,0.00,,,0.00,WUHU216HW,2013-10-18 07:54:00,
2013-10-18 02:59:00,40.8,35.6,29.10,NW,315,0.0,0.0,82,0.00,,,0.00,WUHU216HW,2013-10-18 07:59:00,
2013-10-18 03:04:00,40.8,35.6,29.10,NW,315,0.0,0.0,82,0.00,,,0.00,WUHU216HW,2013-10-18 08:04:00,
2013-10-18 03:09:00,40.8,35.6,29.10,NW,315,0.0,0.0,82,0.00,,,0.00,WUHU216HW,2013-10-18 08:09:00,
2013-10-18 03:14:00,40.6,35.5,29.10,NW,315,0.0,0.0,82,0.00,,,0.00,WUHU216HW,2013-10-18 08:14:00,
2013-10-18 03:20:00,40.6,35.5,29.10,WNW,293,0.0,0.0,82,0.00,,,0.00,WUHU216HW,2013-10-18 08:20:00,
2013-10-18 03:25:00,40.8,35.6,29.10,NW,315,0.0,0.0,82,0.00,,,0.00,WUHU216HW,2013-10-18 08:25:00,
2013-10-18 03:30:00,40.8,35.6,29.10,NW,315,0.0,0.0,82,0.00,,,0.00,WUHU216HW,2013-10-18 08:30:00,
2013-10-18 03:35:00,40.8,35.6,29.10,WNW,293,0.0,0.0,82,0.00,,,0.00,WUHU216HW,2013-10-18 08:35:00,
2013-10-18 03:40:00,40.8,35.3,29.10,WNW,293,0.0,0.0,81,0.00,,,0.00,WUHU216HW,2013-10-18 08:40:00,
2013-10-18 03:45:00,40.6,35.2,29.11,WNW,293,0.0,0.0,81,0.00,,,0.00,WUHU216HW,2013-10-18 08:45:00,
2013-10-18 03:50:00,40.4,35.0,29.11,WNW,293,0.0,0.0,81,0.00,,,0.00,WUHU216HW,2013-10-18 08:50:00,
2013-10-18 03:55:00,40.2,34.8,29.11,WNW,293,0.0,0.0,81,0.00,,,0.00,WUHU216HW,2013-10-18 08:55:00,
2013-10-18 04:00:00,39.9,34.5,29.11,WNW,293,0.0,0.0,81,0.00,,,0.00,WUHU216HW,2013-10-18 09:00:00,
2013-10-18 04:05:00,39.9,34.5,29.11,WNW,293,0.0,0.0,81,0.00,,,0.00,WUHU216HW,2013-10-18 09:05:00,
2013-10-18 04:11:00,39.3,34.0,29.12,WNW,293,0.0,0.0,81,0.00,,,0.00,WUHU216HW,2013-10-18 09:11:00,
2013-10-18 04:16:00,39.3,34.3,29.11,WNW,293,0.0,0.0,82,0.00,,,0.00,WUHU216HW,2013-10-18 09:16:00,
2013-10-18 04:21:00,39.0,34.0,29.11,WNW,293,0.0,0.0,82,0.00,,,0.00,WUHU216HW,2013-10-18 09:21:00,
2013-10-18 04:26:00,38.8,33.8,29.11,WNW,293,0.0,0.0,82,0.00,,,0.00,WUHU216HW,2013-10-18 09:26:00,
2013-10-18 04:31:00,38.8,33.8,29.11,WNW,293,0.0,0.0,82,0.00,,,0.00,WUHU216HW,2013-10-18 09:31:00,
2013-10-18 04:36:00,38.3,33.2,29.11,WNW,293,0.0,0.0,82,0.00,,,0.00,WUHU216HW,2013-10-18 09:36:00,
2013-10-18 04:41:00,38.1,33.1,29.11,WNW,293,0.0,0.0,82,0.00,,,0.00,WUHU216HW,2013-10-18 09:41:00,
2013-10-18 04:46:00,37.9,32.9,29.11,WNW,293,0.0,0.0,82,0.00,,,0.00,WUHU216HW,2013-10-18 09:46:00,
2013-10-18 04:51:00,37.5,32.5,29.11,WNW,293,0.0,0.0,82,0.00,,,0.00,WUHU216HW,2013-10-18 09:51:00,
2013-10-18 04:56:00,37.2,32.5,29.11,WNW,293,0.0,0.0,83,0.00,,,0.00,WUHU216HW,2013-10-18 09:56:00,
2013-10-18 05:01:00,37.2,32.5,29.11,WNW,293,0.0,0.0,83,0.00,,,0.00,WUHU216HW,2013-10-18 10:01:00,
2013-10-18 05:07:00,37.0,32.6,29.11,WNW,293,0.0,0.0,84,0.00,,,0.00,WUHU216HW,2013-10-18 10:07:00,
2013-10-18 05:12:00,37.0,32.6,29.11,WNW,293,0.0,0.0,84,0.00,,,0.00,WUHU216HW,2013-10-18 10:12:00,
2013-10-18 05:17:00,36.8,32.4,29.11,WNW,293,0.0,0.0,84,0.00,,,0.00,WUHU216HW,2013-10-18 10:17:00,
2013-10-18 05:22:00,36.6,32.2,29.12,WNW,293,0.0,0.0,84,0.00,,,0.00,WUHU216HW,2013-10-18 10:22:00,
2013-10-18 05:27:00,36.6,32.2,29.12,North,0,0.0,0.0,84,0.00,,,0.00,WUHU216HW,2013-10-18 10:27:00,
2013-10-18 05:32:00,36.5,32.0,29.12,WNW,293,0.0,0.0,84,0.00,,,0.00,WUHU216HW,2013-10-18 10:32:00,
2013-10-18 05:37:00,36.3,31.8,29.12,WNW,293,0.0,0.0,84,0.00,,,0.00,WUHU216HW,2013-10-18 10:37:00,
2013-10-18 05:42:00,36.1,31.7,29.12,WNW,293,0.0,0.0,84,0.00,,,0.00,WUHU216HW,2013-10-18 10:42:00,
2013-10-18 05:47:00,36.1,32.0,29.12,WNW,293,0.0,0.0,85,0.00,,,0.00,WUHU216HW,2013-10-18 10:47:00,
2013-10-18 05:52:00,35.9,31.8,29.12,WNW,293,0.0,0.0,85,0.00,,,0.00,WUHU216HW,2013-10-18 10:52:00,
2013-10-18 05:57:00,35.7,31.6,29.12,WNW,293,0.0,0.0,85,0.00,,,0.00,WUHU216HW,2013-10-18 10:57:00,
2013-10-18 06:02:00,35.4,31.2,29.12,WNW,293,0.0,0.0,85,0.00,,,0.00,WUHU216HW,2013-10-18 11:02:00,
2013-10-18 06:08:00,35.4,31.2,29.12,WNW,293,0.0,0.0,85,0.00,,,0.00,WUHU216HW,2013-10-18 11:08:00,
2013-10-18 06:13:00,35.2,31.1,29.12,WNW,293,0.0,0.0,85,0.00,,,0.00,WUHU216HW,2013-10-18 11:13:00,
2013-10-18 06:18:00,35.2,31.1,29.12,WNW,293,0.0,0.0,85,0.00,,,0.00,WUHU216HW,2013-10-18 11:18:00,
2013-10-18 06:23:00,34.7,30.5,29.12,WNW,293,0.0,0.0,85,0.00,,,0.00,WUHU216HW,2013-10-18 11:23:00,
2013-10-18 06:28:00,34.5,30.3,29.12,WNW,293,0.0,0.0,85,0.00,,,0.00,WUHU216HW,2013-10-18 11:28:00,
2013-10-18 06:33:00,34.5,30.3,29.12,WNW,293,0.0,0.0,85,0.00,,,0.00,WUHU216HW,2013-10-18 11:33:00,
2013-10-18 06:38:00,34.8,31.0,29.13,WNW,293,0.0,0.0,86,0.00,,,0.00,WUHU216HW,2013-10-18 11:38:00,
2013-10-18 06:43:00,35.2,31.3,29.13,WNW,293,0.0,0.0,86,0.00,,,0.00,WUHU216HW,2013-10-18 11:43:00,
2013-10-18 06:48:00,35.4,31.5,29.14,WNW,293,0.0,0.0,86,0.00,,,0.00,WUHU216HW,2013-10-18 11:48:00,
2013-10-18 06:53:00,35.4,31.5,29.14,WNW,293,0.0,0.0,86,0.00,,,0.00,WUHU216HW,2013-10-18 11:53:00,
2013-10-18 06:58:00,35.4,31.5,29.15,WNW,293,0.0,0.0,86,0.00,,,0.00,WUHU216HW,2013-10-18 11:58:00,
2013-10-18 07:04:00,35.2,31.3,29.15,WNW,293,0.0,0.0,86,0.00,,,0.00,WUHU216HW,2013-10-18 12:04:00,
2013-10-18 07:09:00,35.2,31.3,29.15,WNW,293,0.0,0.0,86,0.00,,,0.00,WUHU216HW,2013-10-18 12:09:00,
2013-10-18 07:14:00,35.0,31.4,29.15,WNW,293,0.0,0.0,87,0.00,,,0.00,WUHU216HW,2013-10-18 12:14:00,
2013-10-18 07:19:00,34.8,31.3,29.15,WNW,293,0.0,0.0,87,0.00,,,0.00,WUHU216HW,2013-10-18 12:19:00,
2013-10-18 07:24:00,34.8,31.3,29.15,WNW,293,0.0,0.0,87,0.00,,,0.00,WUHU216HW,2013-10-18 12:24:00,
2013-10-18 07:29:00,35.0,31.4,29.15,WNW,293,0.0,0.0,87,0.00,,,0.00,WUHU216HW,2013-10-18 12:29:00,
2013-10-18 07:34:00,34.8,31.3,29.15,WNW,293,0.0,0.0,87,0.00,,,0.00,WUHU216HW,2013-10-18 12:34:00,
2013-10-18 07:39:00,35.0,31.4,29.15,WNW,293,0.0,0.0,87,0.00,,,0.00,WUHU216HW,2013-10-18 12:39:00,
2013-10-18 07:44:00,34.8,31.3,29.15,WNW,293,0.0,0.0,87,0.00,,,0.00,WUHU216HW,2013-10-18 12:44:00,
2013-10-18 07:49:00,35.2,31.6,29.16,WNW,293,0.0,0.0,87,0.00,,,0.00,WUHU216HW,2013-10-18 12:49:00,
2013-10-18 07:55:00,35.7,32.5,29.15,WNW,293,0.0,0.0,88,0.00,,,0.00,WUHU216HW,2013-10-18 12:55:00,
2013-10-18 08:00:00,36.3,33.0,29.16,WNW,293,0.0,0.0,88,0.00,,,0.00,WUHU216HW,2013-10-18 13:00:00,
2013-10-18 08:05:00,36.8,33.5,29.16,WNW,293,0.0,0.0,88,0.00,,,0.00,WUHU216HW,2013-10-18 13:05:00,
2013-10-18 08:10:00,37.9,34.3,29.16,WNW,293,0.0,0.0,88,0.00,,,0.00,WUHU216HW,2013-10-18 13:10:00,
2013-10-18 08:15:00,38.4,35.2,29.17,WNW,293,0.0,0.0,88,0.00,,,0.00,WUHU216HW,2013-10-18 13:15:00,
2013-10-18 08:20:00,39.0,35.7,29.17,WNW,293,0.0,0.0,88,0.00,,,0.00,WUHU216HW,2013-10-18 13:20:00,
2013-10-18 08:25:00,39.5,36.2,29.17,WNW,293,0.0,0.0,88,0.00,,,0.00,WUHU216HW,2013-10-18 13:25:00,
2013-10-18 08:30:00,39.9,36.6,29.17,NW,315,0.0,0.0,88,0.00,,,0.00,WUHU216HW,2013-10-18 13:30:00,
2013-10-18 08:35:00,40.1,36.5,29.17,NW,315,0.0,0.0,87,0.00,,,0.00,WUHU216HW,2013-10-18 13:35:00,
2013-10-18 08:40:00,40.8,36.8,29.18,NW,315,0.0,0.0,86,0.00,,,0.00,WUHU216HW,2013-10-18 13:40:00,
2013-10-18 08:46:00,41.3,37.1,29.18,NW,315,0.0,0.0,85,0.00,,,0.00,WUHU216HW,2013-10-18 13:46:00,
2013-10-18 08:51:00,42.0,37.5,29.18,NW,315,0.0,2.0,84,0.00,,,0.00,WUHU216HW,2013-10-18 13:51:00,
2013-10-18 08:56:00,42.8,37.9,29.18,WNW,293,0.0,2.0,83,0.00,,,0.00,WUHU216HW,2013-10-18 13:56:00,
2013-10-18 09:01:00,43.5,38.0,29.18,NW,315,3.1,3.5,81,0.00,,,0.00,WUHU216HW,2013-10-18 14:01:00,
2013-10-18 09:06:00,43.5,37.7,29.19,WNW,293,4.2,4.2,80,0.00,,,0.00,WUHU216HW,2013-10-18 14:06:00,
2013-10-18 09:11:00,43.5,37.7,29.18,NW,315,2.4,4.4,80,0.00,,,0.00,WUHU216HW,2013-10-18 14:11:00,
2013-10-18 09:16:00,43.5,37.7,29.17,NW,315,4.9,4.9,80,0.00,,,0.00,WUHU216HW,2013-10-18 14:16:00,
2013-10-18 09:21:00,44.2,38.1,29.18,NNW,338,0.0,8.0,79,0.00,,,0.00,WUHU216HW,2013-10-18 14:21:00,
2013-10-18 09:26:00,44.9,38.1,29.18,NNW,338,7.8,8.0,77,0.00,,,0.00,WUHU216HW,2013-10-18 14:26:00,
2013-10-18 09:31:00,45.1,38.3,29.18,North,0,6.7,7.8,77,0.00,,,0.00,WUHU216HW,2013-10-18 14:31:00,
2013-10-18 09:36:00,45.3,37.8,29.17,NNE,23,5.1,6.7,75,0.00,,,0.00,WUHU216HW,2013-10-18 14:36:00,
2013-10-18 09:42:00,45.8,38.7,29.17,NNW,338,0.0,8.5,76,0.00,,,0.00,WUHU216HW,2013-10-18 14:42:00,
2013-10-18 09:47:00,46.2,38.7,29.18,NNW,338,6.2,8.5,75,0.00,,,0.00,WUHU216HW,2013-10-18 14:47:00,
2013-10-18 09:52:00,46.2,38.4,29.17,NW,315,6.7,7.1,74,0.00,,,0.00,WUHU216HW,2013-10-18 14:52:00,
2013-10-18 09:57:00,46.7,38.7,29.17,NNW,338,1.1,9.1,74,0.00,,,0.00,WUHU216HW,2013-10-18 14:57:00,
2013-10-18 10:02:00,47.1,38.8,29.18,NW,315,0.0,9.1,73,0.00,,,0.00,WUHU216HW,2013-10-18 15:02:00,
2013-10-18 10:07:00,47.6,39.0,29.17,North,0,4.6,4.6,72,0.00,,,0.00,WUHU216HW,2013-10-18 15:07:00,
2013-10-18 10:12:00,47.8,39.2,29.17,NNE,23,4.0,10.2,72,0.00,,,0.00,WUHU216HW,2013-10-18 15:12:00,
2013-10-18 10:17:00,48.0,39.0,29.18,NNW,338,0.0,10.2,71,0.00,,,0.00,WUHU216HW,2013-10-18 15:17:00,
2013-10-18 10:22:00,47.8,38.5,29.17,NNE,23,0.0,4.0,70,0.00,,,0.00,WUHU216HW,2013-10-18 15:22:00,
2013-10-18 10:27:00,47.6,38.1,29.18,NNW,338,0.0,9.6,70,0.00,,,0.00,WUHU216HW,2013-10-18 15:27:00,
2013-10-18 10:33:00,47.3,38.0,29.17,North,0,0.0,11.8,70,0.00,,,0.00,WUHU216HW,2013-10-18 15:33:00,
2013-10-18 10:38:00,47.4,38.1,29.17,North,0,8.0,13.8,70,0.00,,,0.00,WUHU216HW,2013-10-18 15:38:00,
2013-10-18 10:43:00,47.4,37.7,29.17,NW,315,0.0,13.8,69,0.00,,,0.00,WUHU216HW,2013-10-18 15:43:00,
2013-10-18 10:48:00,47.8,38.1,29.17,NNW,338,8.2,10.2,69,0.00,,,0.00,WUHU216HW,2013-10-18 15:48:00,
2013-10-18 10:53:00,48.5,38.4,29.18,NNW,338,0.2,8.2,68,0.00,,,0.00,WUHU216HW,2013-10-18 15:53:00,
2013-10-18 10:58:00,48.5,38.4,29.17,NNW,338,0.0,7.6,68,0.00,,,0.00,WUHU216HW,2013-10-18 15:58:00,
2013-10-18 11:03:00,49.1,38.9,29.17,NNW,338,10.9,10.9,68,0.00,,,0.00,WUHU216HW,2013-10-18 16:03:00,
2013-10-18 11:08:00,50.9,39.5,29.17,North,0,4.6,10.9,65,0.00,,,0.00,WUHU216HW,2013-10-18 16:08:00,
2013-10-18 11:13:00,51.2,39.0,29.16,North,0,0.0,13.4,63,0.00,,,0.00,WUHU216HW,2013-10-18 16:13:00,
2013-10-18 11:18:00,51.0,38.8,29.16,North,0,5.3,13.4,63,0.00,,,0.00,WUHU216HW,2013-10-18 16:18:00,
2013-10-18 11:24:00,49.8,36.8,29.17,NNW,338,10.2,10.2,61,0.00,,,0.00,WUHU216HW,2013-10-18 16:24:00,
2013-10-18 11:29:00,48.9,35.7,29.17,NNW,338,0.0,10.2,60,0.00,,,0.00,WUHU216HW,2013-10-18 16:29:00,
2013-10-18 11:34:00,48.3,35.6,29.17,NNW,338,0.0,4.9,61,0.00,,,0.00,WUHU216HW,2013-10-18 16:34:00,
2013-10-18 11:39:00,48.2,35.0,29.17,NNW,338,6.7,8.7,60,0.00,,,0.00,WUHU216HW,2013-10-18 16:39:00,
2013-10-18 11:44:00,48.2,35.0,29.17,NNE,23,6.9,8.7,60,0.00,,,0.00,WUHU216HW,2013-10-18 16:44:00,
2013-10-18 11:49:00,47.4,32.0,29.17,NNW,338,11.4,11.4,55,0.00,,,0.00,WUHU216HW,2013-10-18 16:49:00,
2013-10-18 11:54:00,47.4,32.0,29.18,NNW,338,11.4,11.4,55,0.00,,,0.00,WUHU216HW,2013-10-18 16:54:00,
2013-10-18 11:59:00,47.4,32.0,29.18,NNW,338,11.4,11.4,55,0.00,,,0.00,WUHU216HW,2013-10-18 16:59:00,
2013-10-18 12:04:00,47.4,32.0,29.18,NNW,338,11.4,11.4,55,0.00,,,0.00,WUHU216HW,2013-10-18 17:04:00,
2013-10-18 12:09:00,47.4,32.0,29.17,NNW,338,11.4,11.4,55,0.00,,,0.00,WUHU216HW,2013-10-18 17:09:00,
2013-10-18 12:21:00,46.0,33.3,29.17,NNW,338,7.8,7.8,61,0.00,,,0.00,WUHU216HW,2013-10-18 17:21:00,
2013-10-18 12:26:00,46.0,33.3,29.18,WNW,293,6.0,7.8,61,0.00,,,0.00,WUHU216HW,2013-10-18 17:26:00,
2013-10-18 12:31:00,46.0,33.3,29.17,NNW,338,4.9,7.8,61,0.00,,,0.00,WUHU216HW,2013-10-18 17:31:00,
2013-10-18 12:35:00,46.0,33.7,29.17,North,0,7.6,7.6,62,0.00,,,0.00,WUHU216HW,2013-10-18 17:35:00,
2013-10-18 12:40:00,46.0,33.7,29.17,NNW,338,0.0,7.6,62,0.00,,,0.00,WUHU216HW,2013-10-18 17:40:00,
2013-10-18 12:45:00,45.8,33.9,29.17,North,0,4.2,5.5,63,0.00,,,0.00,WUHU216HW,2013-10-18 17:45:00,
2013-10-18 12:50:00,45.8,33.9,29.17,NNW,338,1.5,6.9,63,0.00,,,0.00,WUHU216HW,2013-10-18 17:50:00,
2013-10-18 12:55:00,45.6,33.3,29.17,North,0,0.0,6.9,62,0.00,,,0.00,WUHU216HW,2013-10-18 17:55:00,
2013-10-18 13:00:00,45.5,33.2,29.17,NW,315,6.7,8.0,62,0.00,,,0.00,WUHU216HW,2013-10-18 18:00:00,
2013-10-18 13:05:00,45.1,33.6,29.17,NNW,338,1.3,8.0,64,0.00,,,0.00,WUHU216HW,2013-10-18 18:05:00,
2013-10-18 13:10:00,44.6,33.5,29.17,NW,315,3.1,8.9,65,0.00,,,0.00,WUHU216HW,2013-10-18 18:10:00,
2013-10-18 13:15:00,44.2,33.5,29.17,WNW,293,5.3,8.9,66,0.00,,,0.00,WUHU216HW,2013-10-18 18:15:00,
2013-10-18 13:20:00,43.7,33.4,29.17,NNW,338,6.0,7.1,67,0.00,,,0.00,WUHU216HW,2013-10-18 18:20:00,
2013-10-18 13:26:00,43.1,33.7,29.18,North,0,4.6,7.1,69,0.00,,,0.00,WUHU216HW,2013-10-18 18:26:00,
2013-10-18 13:31:00,42.6,33.6,29.18,North,0,0.0,5.1,70,0.00,,,0.00,WUHU216HW,2013-10-18 18:31:00,
2013-10-18 13:36:00,42.0,34.0,29.18,NW,315,2.2,4.6,73,0.00,,,0.00,WUHU216HW,2013-10-18 18:36:00,
2013-10-18 13:41:00,41.5,33.8,29.18,NNW,338,1.3,2.2,74,0.00,,,0.00,WUHU216HW,2013-10-18 18:41:00,
2013-10-18 13:46:00,41.0,33.7,29.17,NNW,338,0.0,2.2,76,0.00,,,0.00,WUHU216HW,2013-10-18 18:46:00,
2013-10-18 13:51:00,40.4,34.0,29.17,NNW,338,2.4,2.4,78,0.00,,,0.00,WUHU216HW,2013-10-18 18:51:00,
2013-10-18 13:56:00,40.1,33.7,29.17,NW,315,0.0,5.8,78,0.02,,,0.02,WUHU216HW,2013-10-18 18:56:00,
2013-10-18 14:01:00,39.9,33.9,29.17,West,270,0.0,5.8,80,0.02,,,0.02,WUHU216HW,2013-10-18 19:01:00,
2013-10-18 14:06:00,39.7,34.1,29.17,NNW,338,0.0,0.0,80,0.02,,,0.02,WUHU216HW,2013-10-18 19:06:00,
2013-10-18 14:12:00,39.0,33.7,29.16,North,0,0.0,0.0,81,0.02,,,0.02,WUHU216HW,2013-10-18 19:12:00,
2013-10-18 14:17:00,39.0,33.7,29.17,North,0,0.0,0.0,81,0.02,,,0.02,WUHU216HW,2013-10-18 19:17:00,
2013-10-18 14:22:00,39.0,34.0,29.17,NNW,338,0.0,0.0,82,0.02,,,0.02,WUHU216HW,2013-10-18 19:22:00,
2013-10-18 14:27:00,38.8,33.8,29.17,NNW,338,4.0,4.0,82,0.02,,,0.02,WUHU216HW,2013-10-18 19:27:00,
2013-10-18 14:32:00,38.8,33.8,29.17,NNW,338,0.0,4.0,82,0.02,,,0.02,WUHU216HW,2013-10-18 19:32:00,
2013-10-18 14:37:00,38.8,33.8,29.17,NNW,338,0.0,4.0,82,0.02,,,0.02,WUHU216HW,2013-10-18 19:37:00,
2013-10-18 14:42:00,38.8,34.1,29.17,NW,315,4.4,4.4,83,0.02,,,0.02,WUHU216HW,2013-10-18 19:42:00,
2013-10-18 14:47:00,39.0,34.5,29.17,NW,315,0.0,4.4,84,0.02,,,0.02,WUHU216HW,2013-10-18 19:47:00,
2013-10-18 14:53:00,39.2,34.7,29.17,West,270,0.0,4.4,84,0.02,,,0.02,WUHU216HW,2013-10-18 19:53:00,
2013-10-18 14:58:00,39.3,34.9,29.18,NNW,338,0.0,2.0,84,0.00,,,0.02,WUHU216HW,2013-10-18 19:58:00,
2013-10-18 15:03:00,39.0,34.5,29.18,NW,315,0.6,6.4,84,0.00,,,0.02,WUHU216HW,2013-10-18 20:03:00,
2013-10-18 15:08:00,38.8,34.7,29.18,NW,315,1.5,6.4,85,0.00,,,0.02,WUHU216HW,2013-10-18 20:08:00,
2013-10-18 15:13:00,38.8,34.7,29.17,West,270,0.0,5.5,85,0.00,,,0.02,WUHU216HW,2013-10-18 20:13:00,
2013-10-18 15:18:00,38.4,34.3,29.17,NW,315,7.3,7.3,85,0.00,,,0.02,WUHU216HW,2013-10-18 20:18:00,
2013-10-18 15:23:00,38.4,34.3,29.17,NNW,338,4.9,7.3,85,0.00,,,0.02,WUHU216HW,2013-10-18 20:23:00,
2013-10-18 15:29:00,38.3,34.1,29.17,North,0,6.2,7.3,85,0.00,,,0.02,WUHU216HW,2013-10-18 20:29:00,
2013-10-18 15:33:00,38.1,33.8,29.17,West,270,0.0,6.2,85,0.00,,,0.02,WUHU216HW,2013-10-18 20:33:00,
2013-10-18 15:39:00,37.9,33.8,29.17,NNW,338,3.3,3.3,85,0.00,,,0.02,WUHU216HW,2013-10-18 20:39:00,
2013-10-18 15:44:00,37.9,34.0,29.17,NW,315,1.3,3.3,86,0.00,,,0.02,WUHU216HW,2013-10-18 20:44:00,
2013-10-18 15:49:00,37.9,34.0,29.17,NNW,338,0.0,1.3,86,0.00,,,0.02,WUHU216HW,2013-10-18 20:49:00,
2013-10-18 15:54:00,37.9,34.0,29.18,NNW,338,0.0,1.3,86,0.00,,,0.02,WUHU216HW,2013-10-18 20:54:00,
2013-10-18 15:59:00,37.9,34.0,29.18,NW,315,0.0,7.6,86,0.00,,,0.02,WUHU216HW,2013-10-18 20:59:00,
2013-10-18 16:04:00,37.7,33.9,29.18,NW,315,0.0,7.6,86,0.00,,,0.02,WUHU216HW,2013-10-18 21:04:00,
2013-10-18 16:09:00,37.7,33.9,29.18,NW,315,0.0,3.3,86,0.00,,,0.02,WUHU216HW,2013-10-18 21:09:00,
2013-10-18 16:15:00,37.9,34.0,29.17,West,270,2.4,2.4,86,0.00,,,0.02,WUHU216HW,2013-10-18 21:15:00,
2013-10-18 16:20:00,37.9,34.0,29.17,WNW,293,0.0,2.4,86,0.00,,,0.02,WUHU216HW,2013-10-18 21:20:00,
2013-10-18 16:25:00,38.1,34.2,29.17,West,270,0.0,0.0,86,0.00,,,0.02,WUHU216HW,2013-10-18 21:25:00,
2013-10-18 16:30:00,38.1,34.2,29.17,West,270,0.0,0.0,86,0.00,,,0.02,WUHU216HW,2013-10-18 21:30:00,
2013-10-18 16:35:00,38.1,34.2,29.17,NW,315,0.0,0.0,86,0.00,,,0.02,WUHU216HW,2013-10-18 21:35:00,
2013-10-18 16:40:00,37.9,34.0,29.17,NW,315,0.0,0.0,86,0.00,,,0.02,WUHU216HW,2013-10-18 21:40:00,
2013-10-18 16:45:00,37.9,34.0,29.17,West,270,0.0,0.0,86,0.00,,,0.02,WUHU216HW,2013-10-18 21:45:00,
2013-10-18 16:51:00,37.9,34.0,29.17,NW,315,5.3,5.3,86,0.00,,,0.02,WUHU216HW,2013-10-18 21:51:00,
2013-10-18 16:56:00,37.7,33.9,29.16,NW,315,0.0,5.3,86,0.00,,,0.02,WUHU216HW,2013-10-18 21:56:00,
2013-10-18 17:01:00,37.7,33.9,29.17,WNW,293,0.0,4.2,86,0.00,,,0.02,WUHU216HW,2013-10-18 22:01:00,
2013-10-18 17:06:00,37.7,33.9,29.17,NNW,338,0.0,3.8,86,0.00,,,0.02,WUHU216HW,2013-10-18 22:06:00,
2013-10-18 17:11:00,37.7,33.9,29.16,NNW,338,3.3,3.3,86,0.00,,,0.02,WUHU216HW,2013-10-18 22:11:00,
2013-10-18 17:16:00,37.5,33.5,29.16,NNW,338,0.0,5.3,86,0.00,,,0.02,WUHU216HW,2013-10-18 22:16:00,
2013-10-18 17:21:00,37.4,33.5,29.17,NNW,338,0.0,5.3,86,0.00,,,0.02,WUHU216HW,2013-10-18 22:21:00,
2013-10-18 17:26:00,37.5,33.7,29.17,West,270,0.0,0.2,86,0.00,,,0.02,WUHU216HW,2013-10-18 22:26:00,
2013-10-18 17:31:00,37.4,33.5,29.17,West,270,0.0,0.2,86,0.00,,,0.02,WUHU216HW,2013-10-18 22:31:00,
2013-10-18 17:37:00,37.2,33.3,29.17,NW,315,0.0,0.0,86,0.00,,,0.02,WUHU216HW,2013-10-18 22:37:00,
2013-10-18 17:42:00,37.2,33.3,29.16,NW,315,0.0,0.0,86,0.00,,,0.02,WUHU216HW,2013-10-18 22:42:00,
2013-10-18 17:47:00,37.2,33.3,29.17,WNW,293,0.0,0.0,86,0.00,,,0.02,WUHU216HW,2013-10-18 22:47:00,
2013-10-18 17:52:00,37.2,33.3,29.17,WNW,293,0.0,0.0,86,0.00,,,0.02,WUHU216HW,2013-10-18 22:52:00,
2013-10-18 17:57:00,37.2,33.6,29.17,WNW,293,0.0,0.0,87,0.00,,,0.02,WUHU216HW,2013-10-18 22:57:00,
2013-10-18 18:02:00,37.2,33.3,29.16,WNW,293,0.0,0.0,86,0.00,,,0.02,WUHU216HW,2013-10-18 23:02:00,
2013-10-18 18:07:00,37.2,33.3,29.16,WNW,293,0.0,0.0,86,0.00,,,0.02,WUHU216HW,2013-10-18 23:07:00,
2013-10-18 18:12:00,37.0,33.1,29.17,WNW,293,0.0,0.0,86,0.00,,,0.02,WUHU216HW,2013-10-18 23:12:00,
2013-10-18 18:13:00,37.0,33.1,29.17,WNW,293,0.0,0.0,86,0.00,,,0.02,WUHU216HW,2013-10-18 23:13:00,
2013-10-18 18:19:00,37.0,33.1,29.17,WNW,293,0.0,0.0,86,0.00,,,0.02,WUHU216HW,2013-10-18 23:19:00,
2013-10-18 18:31:00,37.0,33.4,29.17,WNW,293,0.0,0.0,87,0.00,,,0.02,WUHU216HW,2013-10-18 23:31:00,
2013-10-18 18:36:00,36.8,33.2,29.16,WNW,293,0.0,0.0,87,0.00,,,0.02,WUHU216HW,2013-10-18 23:36:00,
2013-10-18 18:41:00,36.8,33.2,29.17,WNW,293,0.0,0.0,87,0.00,,,0.02,WUHU216HW,2013-10-18 23:41:00,
2013-10-18 18:46:00,36.6,33.1,29.16,WNW,293,0.0,0.0,87,0.00,,,0.02,WUHU216HW,2013-10-18 23:46:00,
2013-10-18 18:51:00,36.6,33.1,29.16,WNW,293,0.0,0.0,87,0.00,,,0.02,WUHU216HW,2013-10-18 23:51:00,
2013-10-18 18:56:00,36.6,33.1,29.16,WNW,293,0.0,0.0,87,0.00,,,0.02,WUHU216HW,2013-10-18 23:56:00,
2013-10-18 19:01:00,36.6,33.1,29.16,WNW,293,0.0,0.0,87,0.00,,,0.02,WUHU216HW,2013-10-19 00:01:00,
2013-10-18 19:07:00,36.6,33.1,29.16,WNW,293,0.0,0.0,87,0.00,,,0.02,WUHU216HW,2013-10-19 00:07:00,
2013-10-18 19:12:00,36.6,33.1,29.16,WNW,293,0.0,0.0,87,0.00,,,0.02,WUHU216HW,2013-10-19 00:12:00,
2013-10-18 19:17:00,36.6,33.1,29.16,WNW,293,0.0,0.0,87,0.00,,,0.02,WUHU216HW,2013-10-19 00:17:00,
2013-10-18 19:18:00,36.6,33.1,29.16,WNW,293,0.0,0.0,87,0.00,,,0.02,WUHU216HW,2013-10-19 00:18:00,
2013-10-18 19:25:00,36.6,33.1,29.16,WNW,293,0.0,0.0,87,0.00,,,0.02,WUHU216HW,2013-10-19 00:25:00,
2013-10-18 19:31:00,36.6,33.1,29.16,WNW,293,0.0,0.0,87,0.00,,,0.02,WUHU216HW,2013-10-19 00:31:00,
2013-10-18 19:37:00,36.6,33.1,29.16,WNW,293,0.0,0.0,87,0.00,,,0.02,WUHU216HW,2013-10-19 00:37:00,
2013-10-18 19:44:00,36.6,33.1,29.16,WNW,293,0.0,0.0,87,0.00,,,0.02,WUHU216HW,2013-10-19 00:44:00,
2013-10-18 19:50:00,36.6,33.1,29.16,WNW,293,0.0,0.0,87,0.00,,,0.02,WUHU216HW,2013-10-19 00:50:00,
2013-10-18 19:57:00,36.6,33.1,29.16,WNW,293,0.0,0.0,87,0.00,,,0.02,WUHU216HW,2013-10-19 00:57:00,
2013-10-18 20:03:00,36.6,32.9,29.16,WNW,293,0.0,0.0,87,0.00,,,0.02,WUHU216HW,2013-10-19 01:03:00,
2013-10-18 20:10:00,36.6,33.1,29.16,WNW,293,0.0,0.0,87,0.00,,,0.02,WUHU216HW,2013-10-19 01:10:00,
2013-10-18 20:16:00,36.6,33.1,29.16,WNW,293,0.0,0.0,87,0.00,,,0.02,WUHU216HW,2013-10-19 01:16:00,
2013-10-18 20:23:00,36.5,32.9,29.16,WNW,293,0.0,0.0,87,0.00,,,0.02,WUHU216HW,2013-10-19 01:23:00,
2013-10-18 20:29:00,36.5,32.9,29.16,WNW,293,0.0,0.0,87,0.00,,,0.02,WUHU216HW,2013-10-19 01:29:00,
2013-10-18 20:36:00,36.6,33.1,29.16,WNW,293,0.0,0.0,87,0.00,,,0.02,WUHU216HW,2013-10-19 01:36:00,
2013-10-18 20:42:00,36.6,33.1,29.17,WNW,293,0.0,0.0,87,0.00,,,0.02,WUHU216HW,2013-10-19 01:42:00,
2013-10-18 20:49:00,36.6,33.1,29.16,WNW,293,0.0,0.0,87,0.00,,,0.02,WUHU216HW,2013-10-19 01:49:00,
2013-10-18 20:55:00,36.8,33.5,29.17,WNW,293,0.0,0.0,88,0.00,,,0.02,WUHU216HW,2013-10-19 01:55:00,
2013-10-18 21:02:00,36.8,33.5,29.16,WNW,293,0.0,0.0,88,0.00,,,0.02,WUHU216HW,2013-10-19 02:02:00,
2013-10-18 21:08:00,36.8,33.5,29.17,WNW,293,0.0,0.0,88,0.00,,,0.02,WUHU216HW,2013-10-19 02:08:00,
2013-10-18 21:15:00,36.8,33.5,29.17,WNW,293,0.0,0.0,88,0.00,,,0.02,WUHU216HW,2013-10-19 02:15:00,
2013-10-18 21:21:00,36.8,33.5,29.17,WNW,293,0.0,0.0,88,0.00,,,0.02,WUHU216HW,2013-10-19 02:21:00,
2013-10-18 21:28:00,36.8,33.5,29.16,WNW,293,0.0,0.0,88,0.00,,,0.02,WUHU216HW,2013-10-19 02:28:00,
2013-10-18 21:34:00,36.8,33.5,29.17,WNW,293,0.0,0.0,88,0.00,,,0.02,WUHU216HW,2013-10-19 02:34:00,
2013-10-18 21:41:00,36.6,33.4,29.17,WNW,293,0.0,0.0,88,0.00,,,0.02,WUHU216HW,2013-10-19 02:41:00,
2013-10-18 21:46:00,36.3,33.0,29.17,WNW,293,0.0,0.0,88,0.00,,,0.02,WUHU216HW,2013-10-19 02:46:00,
2013-10-18 21:53:00,36.1,32.8,29.17,WNW,293,0.0,0.0,88,0.00,,,0.02,WUHU216HW,2013-10-19 02:53:00,
2013-10-18 21:59:00,36.1,32.8,29.17,WNW,293,0.0,0.0,88,0.00,,,0.02,WUHU216HW,2013-10-19 02:59:00,
2013-10-18 22:13:00,35.9,32.6,29.17,WNW,293,0.0,0.0,88,0.00,,,0.02,WUHU216HW,2013-10-19 03:13:00,
2013-10-18 22:18:00,36.1,32.8,29.17,WNW,293,0.0,0.0,88,0.00,,,0.02,WUHU216HW,2013-10-19 03:18:00,
2013-10-18 22:23:00,35.9,32.6,29.17,WNW,293,0.0,0.0,88,0.00,,,0.02,WUHU216HW,2013-10-19 03:23:00,
2013-10-18 22:28:00,35.9,32.6,29.17,WNW,293,0.0,0.0,88,0.00,,,0.02,WUHU216HW,2013-10-19 03:28:00,
2013-10-18 22:33:00,35.9,32.6,29.17,WNW,293,0.0,0.0,88,0.00,,,0.02,WUHU216HW,2013-10-19 03:33:00,
2013-10-18 22:38:00,35.9,32.6,29.17,WNW,293,0.0,0.0,88,0.00,,,0.02,WUHU216HW,2013-10-19 03:38:00,
2013-10-18 22:43:00,35.9,32.6,29.17,WNW,293,0.0,0.0,88,0.00,,,0.02,WUHU216HW,2013-10-19 03:43:00,
2013-10-18 22:48:00,35.9,32.6,29.17,WNW,293,0.0,0.0,88,0.00,,,0.02,WUHU216HW,2013-10-19 03:48:00,
2013-10-18 22:53:00,35.9,32.6,29.17,WNW,293,0.0,0.0,88,0.00,,,0.02,WUHU216HW,2013-10-19 03:53:00,
2013-10-18 22:58:00,35.9,32.6,29.17,WNW,293,0.0,0.0,88,0.00,,,0.02,WUHU216HW,2013-10-19 03:58:00,
2013-10-18 23:01:00,35.9,32.6,29.17,WNW,293,0.0,0.0,88,0.00,,,0.02,WUHU216HW,2013-10-19 04:01:00,
2013-10-18 23:02:00,35.9,32.6,29.16,WNW,293,0.0,0.0,88,0.00,,,0.02,WUHU216HW,2013-10-19 04:02:00,
2013-10-18 23:03:00,36.1,32.8,29.16,WNW,293,0.0,0.0,88,0.00,,,0.02,WUHU216HW,2013-10-19 04:03:00,
2013-10-18 23:08:00,35.9,32.6,29.16,WNW,293,0.0,0.0,88,0.00,,,0.02,WUHU216HW,2013-10-19 04:08:00,
2013-10-18 23:13:00,36.1,32.8,29.16,WNW,293,0.0,0.0,88,0.00,,,0.02,WUHU216HW,2013-10-19 04:13:00,
2013-10-18 23:18:00,36.1,33.1,29.16,WNW,293,0.0,0.0,89,0.00,,,0.02,WUHU216HW,2013-10-19 04:18:00,
2013-10-18 23:24:00,36.1,33.1,29.16,WNW,293,0.0,0.0,89,0.00,,,0.02,WUHU216HW,2013-10-19 04:24:00,
2013-10-18 23:29:00,36.3,33.3,29.16,WNW,293,0.0,0.0,89,0.00,,,0.02,WUHU216HW,2013-10-19 04:29:00,
2013-10-18 23:34:00,36.3,33.3,29.16,WNW,293,0.0,0.0,89,0.00,,,0.02,WUHU216HW,2013-10-19 04:34:00,
2013-10-18 23:39:00,36.3,33.3,29.16,WNW,293,0.0,0.0,89,0.00,,,0.02,WUHU216HW,2013-10-19 04:39:00,
2013-10-18 23:44:00,35.9,32.9,29.16,WNW,293,0.0,0.0,89,0.00,,,0.02,WUHU216HW,2013-10-19 04:44:00,
2013-10-18 23:49:00,35.9,32.9,29.16,WNW,293,0.0,0.0,89,0.00,,,0.02,WUHU216HW,2013-10-19 04:49:00,
2013-10-18 23:54:00,35.7,32.7,29.15,West,270,0.0,0.0,89,0.00,,,0.02,WUHU216HW,2013-10-19 04:54:00,
2013-10-18 23:59:00,35.7,32.7,29.15,WNW,293,0.0,0.0,89,0.00,,,0.02,WUHU216HW,2013-10-19 04:59:00,